DW6099 Weather Reports


Display with metric or nautical units.
time (UTC)temp
F
wind
direction
speed
MPH
gust
MPH
rain 1hr
in
rain 24hr
in
rain mn
in
humidity
%
barometer
mb
20260509093016 47 16 0.0 0.0 0.00 0.00 0.00 91 1002.4
20260509091513 47 16 0.0 0.0 0.00 0.00 0.00 90 1002.4
20260509090012 48 16 0.0 0.0 0.00 0.00 0.00 91 1002.4
20260509084512 48 16 0.0 0.0 0.00 0.00 0.00 91 1002.4
20260509083008 49 16 0.0 0.0 0.00 0.00 0.00 90 1002.4
20260509081511 49 16 0.0 0.0 0.00 0.00 0.00 89 1002.4
20260509080005 49 16 0.0 0.0 0.00 0.00 0.00 89 1002.4
20260509074503 50 16 0.0 0.0 0.00 0.00 0.00 89 1002.4
20260509073006 50 16 0.0 0.0 0.00 0.00 0.00 88 1002.4
20260509071602 51 16 0.0 0.0 0.00 0.00 0.00 87 1002.4
20260509064557 52 16 0.0 0.0 0.00 0.00 0.00 86 1002.4
20260509063101 53 16 0.0 0.0 0.00 0.00 0.00 84 1002.4
20260509061601 53 16 0.0 0.0 0.00 0.00 0.00 84 1002.4
20260509060104 54 16 0.0 0.0 0.00 0.00 0.00 82 1002.4
20260509054611 55 16 0.0 0.0 0.00 0.00 0.00 81 1002.4
20260509053058 56 16 0.0 0.0 0.00 0.00 0.00 79 1002.4
20260509051554 58 16 0.0 0.0 0.00 0.00 0.00 75 1002.4
20260509050057 59 16 0.0 0.0 0.00 0.00 0.00 75 1002.4
20260509044554 59 16 0.0 0.0 0.00 0.00 0.00 74 1002.4
20260509043054 60 16 0.0 0.0 0.00 0.00 0.00 73 1002.4
20260509041555 60 16 0.0 0.0 0.00 0.00 0.00 72 1002.4
20260509040122 61 16 0.0 0.0 0.00 0.00 0.00 71 1002.4
20260509034557 62 16 0.0 0.0 0.00 0.00 0.00 71 1002.4
20260509033053 62 16 0.0 0.0 0.00 0.00 0.00 69 1002.4
20260509031553 63 16 0.0 0.0 0.00 0.00 0.00 68 1002.4
20260509030051 63 16 0.0 0.0 0.00 0.00 0.00 68 1002.4
20260509024550 64 16 0.0 0.0 0.00 0.00 0.00 68 1002.4
20260509023050 64 16 0.0 0.0 0.00 0.00 0.00 68 1002.4
20260509021550 64 16 0.0 0.0 0.00 0.00 0.00 68 1002.4
20260509020049 65 16 1.0 4.0 0.00 0.00 0.00 67 1002.4
20260509014547 65 17 3.0 5.0 0.00 0.00 0.00 63 1002.4
20260509013050 66 14 3.0 5.0 0.00 0.00 0.00 64 1002.4
20260509011557 67 18 2.0 5.0 0.00 0.00 0.00 62 1002.4
20260509010049 66 19 1.0 4.0 0.00 0.00 0.00 61 1002.4
20260509004603 66 19 0.0 5.0 0.00 0.00 0.00 62 1002.4
20260509003045 66 5 5.0 7.0 0.00 0.00 0.00 62 1002.4
20260509001545 66 16 1.0 6.0 0.00 0.00 0.00 62 1002.4
20260509000046 66 21 0.0 5.0 0.00 0.00 0.00 62 1002.4
20260508234543 66 15 0.0 4.0 0.00 0.00 0.00 62 1002.4
20260508233043 66 15 3.0 6.0 0.00 0.00 0.00 61 1002.4
20260508231542 66 14 0.0 6.0 0.00 0.00 0.00 62 1002.4
20260508230042 66 11 1.0 5.0 0.00 0.00 0.00 60 1002.4
20260508224540 67 144 0.0 3.0 0.00 0.00 0.00 58 1002.4
20260508223045 66 17 0.0 5.0 0.00 0.00 0.00 61 1002.4
20260508221541 66 140 0.0 3.0 0.00 0.00 0.00 57 1002.4
20260508220038 70 137 0.0 4.0 0.00 0.00 0.00 52 1002.4
20260508214538 68 112 0.0 4.0 0.00 0.00 0.00 51 1002.4
20260508213035 67 119 0.0 6.0 0.00 0.00 0.00 54 1002.4
20260508211535 66 39 0.0 4.0 0.00 0.00 0.00 58 1002.4
20260508210033 68 35 0.0 7.0 0.00 0.00 0.00 55 1002.4
20260508204532 66 136 0.0 7.0 0.00 0.00 0.00 56 1002.4
20260508203028 66 150 0.0 5.0 0.00 0.00 0.00 55 1002.4
20260508201526 64 104 0.0 4.0 0.00 0.00 0.00 61 1002.4
20260508200027 64 139 0.0 2.0 0.00 0.00 0.00 58 1002.4
20260508194524 63 53 0.0 4.0 0.00 0.00 0.00 62 1002.4
20260508193023 62 43 0.0 3.0 0.00 0.00 0.00 64 1002.4
20260508191525 61 11 0.0 4.0 0.00 0.00 0.00 66 1002.4
20260508190027 62 355 2.0 9.0 0.00 0.00 0.00 62 1002.4
20260508184521 63 238 2.0 8.0 0.00 0.00 0.00 54 1002.4
20260508183019 62 180 2.0 5.0 0.00 0.00 0.00 58 1002.4
20260508181518 62 273 0.0 8.0 0.00 0.00 0.00 58 1002.4
20260508180019 61 200 3.0 7.0 0.00 0.00 0.00 58 1002.4
20260508174512 59 188 2.0 7.0 0.00 0.00 0.00 63 1002.4
20260508173009 58 249 1.0 8.0 0.00 0.00 0.00 64 1002.4
20260508171504 57 257 0.0 7.0 0.00 0.00 0.00 67 1002.4
20260508170100 56 190 0.0 7.0 0.00 0.00 0.00 68 1002.4
20260508164559 54 270 2.0 7.0 0.00 0.00 0.00 71 1002.4
20260508163058 55 252 2.0 9.0 0.00 0.00 0.00 70 1002.4
20260508161556 53 212 3.0 7.0 0.00 0.00 0.00 75 1002.4
20260508160119 53 209 3.0 7.0 0.00 0.00 0.00 77 1002.4
20260508154556 52 196 4.0 8.0 0.00 0.00 0.00 79 1002.4
20260508153048 51 229 1.0 6.0 0.00 0.00 0.00 81 1002.4
20260508151550 50 132 2.0 8.0 0.00 0.00 0.00 83 1002.4
20260508150044 49 150 2.0 6.0 0.00 0.00 0.00 85 1002.4
20260508144547 50 163 0.0 4.0 0.00 0.00 0.00 84 1002.4
20260508143058 50 157 0.0 6.0 0.00 0.00 0.00 83 1002.4
20260508141551 50 184 2.0 5.0 0.00 0.00 0.00 82 1002.4
20260508140044 50 205 2.0 5.0 0.00 0.00 0.00 81 1002.4
20260508134542 50 212 1.0 5.0 0.00 0.00 0.00 81 1002.4
20260508133043 50 215 2.0 6.0 0.00 0.00 0.00 80 1002.4
20260508131535 50 272 1.0 5.0 0.00 0.00 0.00 80 1002.4
20260508130036 50 254 1.0 7.0 0.00 0.00 0.00 79 1002.4
20260508124532 50 245 1.0 6.0 0.00 0.00 0.00 80 1002.4
20260508123032 50 244 0.0 5.0 0.00 0.00 0.00 79 1002.4
20260508121551 50 252 1.0 7.0 0.00 0.00 0.00 80 1002.4
20260508120034 50 211 2.0 5.0 0.00 0.00 0.00 79 1002.4
20260508114528 50 214 1.0 5.0 0.00 0.00 0.00 80 1002.4
20260508113028 50 254 0.0 0.0 0.00 0.00 0.00 80 1002.4
20260508111526 50 254 0.0 3.0 0.00 0.00 0.00 79 1002.4
20260508110026 50 267 1.0 4.0 0.00 0.00 0.00 79 1002.4
20260508104526 50 253 0.0 0.0 0.00 0.00 0.00 78 1002.4
20260508103025 51 253 0.0 3.0 0.00 0.00 0.00 78 1002.4
20260508101524 51 247 1.0 6.0 0.00 0.00 0.00 78 1002.4
20260508100024 51 236 3.0 7.0 0.00 0.00 0.00 78 1002.4
20260508094525 51 267 0.0 5.0 0.00 0.00 0.00 79 1002.4